<?xml version="1.0" encoding="UTF-8" standalone="no" ?>
<gpx xmlns="http://www.topografix.com/GPX/1/1" xmlns:xsi="http://www.w3.org/2001/XMLSchema-instance" xsi:schemaLocation="http://www.topografix.com/GPX/1/1 http://www.topografix.com/GPX/1/1/gpx.xsd" version="1.1" creator="VisuGPX - https://www.visugpx.com">
  <metadata>
    <name>BEUIL </name>
    <desc><![CDATA[BEUIL DPT PARKING DES ANGUILLERS]]></desc>
  </metadata>
  <trk>
    <name><![CDATA[BEUIL]]></name>
    <cmt><![CDATA[PK ANGUILLERS]]></cmt>
    <desc><![CDATA[comment ...]]></desc>
    <trkseg>
      <trkpt lat="44.08074" lon="6.95632">
        <ele>1497.3</ele>
        <time>2015-02-18T21:07:20Z</time>
      </trkpt>
      <trkpt lat="44.08022" lon="6.95653">
        <ele>1496.4</ele>
        <time>2015-02-18T21:07:20Z</time>
      </trkpt>
      <trkpt lat="44.07969" lon="6.95675">
        <ele>1498.4</ele>
        <time>2015-02-18T21:07:20Z</time>
      </trkpt>
      <trkpt lat="44.078" lon="6.95795">
        <ele>1489.1</ele>
        <time>2015-02-18T21:07:20Z</time>
      </trkpt>
      <trkpt lat="44.07748" lon="6.95782">
        <ele>1487.9</ele>
        <time>2015-02-18T21:07:20Z</time>
      </trkpt>
      <trkpt lat="44.07695" lon="6.95769">
        <ele>1485.6</ele>
        <time>2015-02-18T21:07:20Z</time>
      </trkpt>
      <trkpt lat="44.0764" lon="6.95773">
        <ele>1483.1</ele>
        <time>2015-02-18T21:07:20Z</time>
      </trkpt>
      <trkpt lat="44.07421" lon="6.95838">
        <ele>1482.5</ele>
        <time>2015-02-18T21:07:20Z</time>
      </trkpt>
      <trkpt lat="44.07199" lon="6.95919">
        <ele>1505.2</ele>
        <time>2015-02-18T21:07:20Z</time>
      </trkpt>
      <trkpt lat="44.07146" lon="6.95889">
        <ele>1499.1</ele>
        <time>2015-02-18T21:07:20Z</time>
      </trkpt>
      <trkpt lat="44.07106" lon="6.95816">
        <ele>1517.2</ele>
        <time>2015-02-18T21:07:20Z</time>
      </trkpt>
      <trkpt lat="44.07051" lon="6.95859">
        <ele>1538.7</ele>
        <time>2015-02-18T21:07:20Z</time>
      </trkpt>
      <trkpt lat="44.07014" lon="6.95932">
        <ele>1541.5</ele>
        <time>2015-02-18T21:07:20Z</time>
      </trkpt>
      <trkpt lat="44.06961" lon="6.95988">
        <ele>1543.4</ele>
        <time>2015-02-18T21:07:20Z</time>
      </trkpt>
      <trkpt lat="44.06906" lon="6.96018">
        <ele>1545.8</ele>
        <time>2015-02-18T21:07:20Z</time>
      </trkpt>
      <trkpt lat="44.06801" lon="6.96061">
        <ele>1554.9</ele>
        <time>2015-02-18T21:07:20Z</time>
      </trkpt>
      <trkpt lat="44.06749" lon="6.96112">
        <ele>1557.2</ele>
        <time>2015-02-18T21:07:20Z</time>
      </trkpt>
      <trkpt lat="44.06749" lon="6.96087">
        <ele>1561.9</ele>
        <time>2015-02-18T21:07:20Z</time>
      </trkpt>
      <trkpt lat="44.0669" lon="6.96155">
        <ele>1563.3</ele>
        <time>2015-02-18T21:07:20Z</time>
      </trkpt>
      <trkpt lat="44.06634" lon="6.9622">
        <ele>1566.8</ele>
        <time>2015-02-18T21:07:20Z</time>
      </trkpt>
      <trkpt lat="44.06576" lon="6.96254">
        <ele>1576.3</ele>
        <time>2015-02-18T21:07:20Z</time>
      </trkpt>
      <trkpt lat="44.0653" lon="6.96327">
        <ele>1573</ele>
        <time>2015-02-18T21:07:20Z</time>
      </trkpt>
      <trkpt lat="44.06477" lon="6.96344">
        <ele>1573.1</ele>
        <time>2015-02-18T21:07:20Z</time>
      </trkpt>
      <trkpt lat="44.06425" lon="6.96331">
        <ele>1581.4</ele>
        <time>2015-02-18T21:07:20Z</time>
      </trkpt>
      <trkpt lat="44.06372" lon="6.96297">
        <ele>1587.2</ele>
        <time>2015-02-18T21:07:20Z</time>
      </trkpt>
      <trkpt lat="44.06363" lon="6.96224">
        <ele>1599.3</ele>
        <time>2015-02-18T21:07:20Z</time>
      </trkpt>
      <trkpt lat="44.06308" lon="6.9616">
        <ele>1597.6</ele>
        <time>2015-02-18T21:07:20Z</time>
      </trkpt>
      <trkpt lat="44.06261" lon="6.96082">
        <ele>1606</ele>
        <time>2015-02-18T21:07:20Z</time>
      </trkpt>
      <trkpt lat="44.06234" lon="6.96009">
        <ele>1612.7</ele>
        <time>2015-02-18T21:07:20Z</time>
      </trkpt>
      <trkpt lat="44.06206" lon="6.95936">
        <ele>1611.6</ele>
        <time>2015-02-18T21:07:20Z</time>
      </trkpt>
      <trkpt lat="44.06144" lon="6.95713">
        <ele>1631.3</ele>
        <time>2015-02-18T21:07:20Z</time>
      </trkpt>
      <trkpt lat="44.06132" lon="6.9564">
        <ele>1643.1</ele>
        <time>2015-02-18T21:07:20Z</time>
      </trkpt>
      <trkpt lat="44.06126" lon="6.95567">
        <ele>1659.4</ele>
        <time>2015-02-18T21:07:20Z</time>
      </trkpt>
      <trkpt lat="44.06107" lon="6.95567">
        <ele>1652.9</ele>
        <time>2015-02-18T21:07:20Z</time>
      </trkpt>
      <trkpt lat="44.06055" lon="6.95542">
        <ele>1640</ele>
        <time>2015-02-18T21:07:20Z</time>
      </trkpt>
      <trkpt lat="44.06045" lon="6.95464">
        <ele>1647.8</ele>
        <time>2015-02-18T21:07:20Z</time>
      </trkpt>
      <trkpt lat="44.06045" lon="6.9531">
        <ele>1667.1</ele>
        <time>2015-02-18T21:07:20Z</time>
      </trkpt>
      <trkpt lat="44.06024" lon="6.95237">
        <ele>1667.6</ele>
        <time>2015-02-18T21:07:20Z</time>
      </trkpt>
      <trkpt lat="44.06079" lon="6.9522">
        <ele>1684.5</ele>
        <time>2015-02-18T21:07:20Z</time>
      </trkpt>
      <trkpt lat="44.06132" lon="6.95185">
        <ele>1704.7</ele>
        <time>2015-02-18T21:07:20Z</time>
      </trkpt>
      <trkpt lat="44.06184" lon="6.95142">
        <ele>1722.3</ele>
        <time>2015-02-18T21:07:20Z</time>
      </trkpt>
      <trkpt lat="44.06184" lon="6.95155">
        <ele>1724.4</ele>
        <time>2015-02-18T21:07:20Z</time>
      </trkpt>
      <trkpt lat="44.06237" lon="6.95121">
        <ele>1742.2</ele>
        <time>2015-02-18T21:07:20Z</time>
      </trkpt>
      <trkpt lat="44.06283" lon="6.95039">
        <ele>1751.7</ele>
        <time>2015-02-18T21:07:20Z</time>
      </trkpt>
      <trkpt lat="44.06341" lon="6.94997">
        <ele>1762.1</ele>
        <time>2015-02-18T21:07:20Z</time>
      </trkpt>
      <trkpt lat="44.06394" lon="6.94958">
        <ele>1766.1</ele>
        <time>2015-02-18T21:07:20Z</time>
      </trkpt>
      <trkpt lat="44.06437" lon="6.94885">
        <ele>1768.9</ele>
        <time>2015-02-18T21:07:20Z</time>
      </trkpt>
      <trkpt lat="44.06462" lon="6.94812">
        <ele>1773.4</ele>
        <time>2015-02-18T21:07:20Z</time>
      </trkpt>
      <trkpt lat="44.06514" lon="6.94756">
        <ele>1777.4</ele>
        <time>2015-02-18T21:07:20Z</time>
      </trkpt>
      <trkpt lat="44.06567" lon="6.94705">
        <ele>1784.1</ele>
        <time>2015-02-18T21:07:20Z</time>
      </trkpt>
      <trkpt lat="44.06573" lon="6.94632">
        <ele>1780.8</ele>
        <time>2015-02-18T21:07:20Z</time>
      </trkpt>
      <trkpt lat="44.06573" lon="6.94559">
        <ele>1784.5</ele>
        <time>2015-02-18T21:07:20Z</time>
      </trkpt>
      <trkpt lat="44.06625" lon="6.94537">
        <ele>1784.7</ele>
        <time>2015-02-18T21:07:20Z</time>
      </trkpt>
      <trkpt lat="44.06678" lon="6.94503">
        <ele>1783.2</ele>
        <time>2015-02-18T21:07:20Z</time>
      </trkpt>
      <trkpt lat="44.06727" lon="6.94426">
        <ele>1796.8</ele>
        <time>2015-02-18T21:07:20Z</time>
      </trkpt>
      <trkpt lat="44.06816" lon="6.94267">
        <ele>1797.5</ele>
        <time>2015-02-18T21:07:20Z</time>
      </trkpt>
      <trkpt lat="44.06897" lon="6.94104">
        <ele>1812.5</ele>
        <time>2015-02-18T21:07:20Z</time>
      </trkpt>
      <trkpt lat="44.06952" lon="6.94057">
        <ele>1817.1</ele>
        <time>2015-02-18T21:07:20Z</time>
      </trkpt>
      <trkpt lat="44.06952" lon="6.94065">
        <ele>1815.6</ele>
        <time>2015-02-18T21:07:20Z</time>
      </trkpt>
      <trkpt lat="44.06977" lon="6.93992">
        <ele>1825</ele>
        <time>2015-02-18T21:07:20Z</time>
      </trkpt>
      <trkpt lat="44.06995" lon="6.93919">
        <ele>1830.1</ele>
        <time>2015-02-18T21:07:20Z</time>
      </trkpt>
      <trkpt lat="44.07048" lon="6.93864">
        <ele>1836.4</ele>
        <time>2015-02-18T21:07:20Z</time>
      </trkpt>
      <trkpt lat="44.07054" lon="6.93782">
        <ele>1843.7</ele>
        <time>2015-02-18T21:07:20Z</time>
      </trkpt>
      <trkpt lat="44.07066" lon="6.937">
        <ele>1848.8</ele>
        <time>2015-02-18T21:07:20Z</time>
      </trkpt>
      <trkpt lat="44.07097" lon="6.93615">
        <ele>1860.1</ele>
        <time>2015-02-18T21:07:20Z</time>
      </trkpt>
      <trkpt lat="44.0714" lon="6.93542">
        <ele>1865.2</ele>
        <time>2015-02-18T21:07:20Z</time>
      </trkpt>
      <trkpt lat="44.07149" lon="6.93464">
        <ele>1857.9</ele>
        <time>2015-02-18T21:07:20Z</time>
      </trkpt>
      <trkpt lat="44.07149" lon="6.93391">
        <ele>1858.5</ele>
        <time>2015-02-18T21:07:20Z</time>
      </trkpt>
      <trkpt lat="44.07202" lon="6.93443">
        <ele>1860.1</ele>
        <time>2015-02-18T21:07:20Z</time>
      </trkpt>
      <trkpt lat="44.07245" lon="6.93516">
        <ele>1851.3</ele>
        <time>2015-02-18T21:07:20Z</time>
      </trkpt>
      <trkpt lat="44.07279" lon="6.93593">
        <ele>1845.4</ele>
        <time>2015-02-18T21:07:20Z</time>
      </trkpt>
      <trkpt lat="44.07331" lon="6.93662">
        <ele>1843.2</ele>
        <time>2015-02-18T21:07:20Z</time>
      </trkpt>
      <trkpt lat="44.07393" lon="6.93705">
        <ele>1841.5</ele>
        <time>2015-02-18T21:07:20Z</time>
      </trkpt>
      <trkpt lat="44.07448" lon="6.93731">
        <ele>1838.7</ele>
        <time>2015-02-18T21:07:20Z</time>
      </trkpt>
      <trkpt lat="44.07504" lon="6.93718">
        <ele>1828.6</ele>
        <time>2015-02-18T21:07:20Z</time>
      </trkpt>
      <trkpt lat="44.07689" lon="6.93649">
        <ele>1818.9</ele>
        <time>2015-02-18T21:07:20Z</time>
      </trkpt>
      <trkpt lat="44.07741" lon="6.93623">
        <ele>1815.4</ele>
        <time>2015-02-18T21:07:20Z</time>
      </trkpt>
      <trkpt lat="44.07797" lon="6.9358">
        <ele>1806.5</ele>
        <time>2015-02-18T21:07:20Z</time>
      </trkpt>
      <trkpt lat="44.07849" lon="6.93619">
        <ele>1794.6</ele>
        <time>2015-02-18T21:07:20Z</time>
      </trkpt>
      <trkpt lat="44.07849" lon="6.937">
        <ele>1788.2</ele>
        <time>2015-02-18T21:07:20Z</time>
      </trkpt>
      <trkpt lat="44.07868" lon="6.93782">
        <ele>1773</ele>
        <time>2015-02-18T21:07:20Z</time>
      </trkpt>
      <trkpt lat="44.0788" lon="6.93855">
        <ele>1762.3</ele>
        <time>2015-02-18T21:07:20Z</time>
      </trkpt>
      <trkpt lat="44.0784" lon="6.93928">
        <ele>1769.6</ele>
        <time>2015-02-18T21:07:20Z</time>
      </trkpt>
      <trkpt lat="44.07781" lon="6.93924">
        <ele>1783.2</ele>
        <time>2015-02-18T21:07:20Z</time>
      </trkpt>
      <trkpt lat="44.07677" lon="6.93889">
        <ele>1792.3</ele>
        <time>2015-02-18T21:07:20Z</time>
      </trkpt>
      <trkpt lat="44.07698" lon="6.93971">
        <ele>1781.5</ele>
        <time>2015-02-18T21:07:20Z</time>
      </trkpt>
      <trkpt lat="44.07751" lon="6.94009">
        <ele>1769</ele>
        <time>2015-02-18T21:07:20Z</time>
      </trkpt>
      <trkpt lat="44.07803" lon="6.94014">
        <ele>1765.2</ele>
        <time>2015-02-18T21:07:20Z</time>
      </trkpt>
      <trkpt lat="44.07859" lon="6.94005">
        <ele>1752.5</ele>
        <time>2015-02-18T21:07:20Z</time>
      </trkpt>
      <trkpt lat="44.0792" lon="6.93979">
        <ele>1736.4</ele>
        <time>2015-02-18T21:07:20Z</time>
      </trkpt>
      <trkpt lat="44.07973" lon="6.93997">
        <ele>1715.2</ele>
        <time>2015-02-18T21:07:20Z</time>
      </trkpt>
      <trkpt lat="44.08006" lon="6.94074">
        <ele>1703.6</ele>
        <time>2015-02-18T21:07:20Z</time>
      </trkpt>
      <trkpt lat="44.08062" lon="6.94091">
        <ele>1694</ele>
        <time>2015-02-18T21:07:20Z</time>
      </trkpt>
      <trkpt lat="44.08173" lon="6.94087">
        <ele>1683.8</ele>
        <time>2015-02-18T21:07:20Z</time>
      </trkpt>
      <trkpt lat="44.08232" lon="6.94082">
        <ele>1681.4</ele>
        <time>2015-02-18T21:07:20Z</time>
      </trkpt>
      <trkpt lat="44.08287" lon="6.94018">
        <ele>1674.6</ele>
        <time>2015-02-18T21:07:20Z</time>
      </trkpt>
      <trkpt lat="44.08333" lon="6.94091">
        <ele>1668.6</ele>
        <time>2015-02-18T21:07:20Z</time>
      </trkpt>
      <trkpt lat="44.08395" lon="6.941">
        <ele>1672</ele>
        <time>2015-02-18T21:07:20Z</time>
      </trkpt>
      <trkpt lat="44.08447" lon="6.94112">
        <ele>1673.9</ele>
        <time>2015-02-18T21:07:20Z</time>
      </trkpt>
      <trkpt lat="44.08503" lon="6.94138">
        <ele>1671.1</ele>
        <time>2015-02-18T21:07:20Z</time>
      </trkpt>
      <trkpt lat="44.0854" lon="6.94211">
        <ele>1671.8</ele>
        <time>2015-02-18T21:07:20Z</time>
      </trkpt>
      <trkpt lat="44.08531" lon="6.94288">
        <ele>1676.9</ele>
        <time>2015-02-18T21:07:20Z</time>
      </trkpt>
      <trkpt lat="44.08527" lon="6.94361">
        <ele>1674.1</ele>
        <time>2015-02-18T21:07:20Z</time>
      </trkpt>
      <trkpt lat="44.08503" lon="6.94447">
        <ele>1672.6</ele>
        <time>2015-02-18T21:07:20Z</time>
      </trkpt>
      <trkpt lat="44.08438" lon="6.94679">
        <ele>1672.6</ele>
        <time>2015-02-18T21:07:20Z</time>
      </trkpt>
      <trkpt lat="44.08438" lon="6.94752">
        <ele>1662.9</ele>
        <time>2015-02-18T21:07:20Z</time>
      </trkpt>
      <trkpt lat="44.08407" lon="6.94829">
        <ele>1655.7</ele>
        <time>2015-02-18T21:07:20Z</time>
      </trkpt>
      <trkpt lat="44.08352" lon="6.94911">
        <ele>1640</ele>
        <time>2015-02-18T21:07:20Z</time>
      </trkpt>
      <trkpt lat="44.08296" lon="6.94979">
        <ele>1625.7</ele>
        <time>2015-02-18T21:07:20Z</time>
      </trkpt>
      <trkpt lat="44.08244" lon="6.95001">
        <ele>1611.5</ele>
        <time>2015-02-18T21:07:20Z</time>
      </trkpt>
      <trkpt lat="44.08284" lon="6.95074">
        <ele>1610.8</ele>
        <time>2015-02-18T21:07:20Z</time>
      </trkpt>
      <trkpt lat="44.08275" lon="6.95151">
        <ele>1597.5</ele>
        <time>2015-02-18T21:07:20Z</time>
      </trkpt>
      <trkpt lat="44.08238" lon="6.95228">
        <ele>1582.3</ele>
        <time>2015-02-18T21:07:20Z</time>
      </trkpt>
      <trkpt lat="44.08244" lon="6.95306">
        <ele>1577.9</ele>
        <time>2015-02-18T21:07:20Z</time>
      </trkpt>
      <trkpt lat="44.08309" lon="6.95323">
        <ele>1558.7</ele>
        <time>2015-02-18T21:07:20Z</time>
      </trkpt>
      <trkpt lat="44.08361" lon="6.95344">
        <ele>1544.5</ele>
        <time>2015-02-18T21:07:20Z</time>
      </trkpt>
      <trkpt lat="44.08361" lon="6.95331">
        <ele>1546.3</ele>
        <time>2015-02-18T21:07:20Z</time>
      </trkpt>
      <trkpt lat="44.08364" lon="6.95404">
        <ele>1537.8</ele>
        <time>2015-02-18T21:07:20Z</time>
      </trkpt>
      <trkpt lat="44.08413" lon="6.95477">
        <ele>1539.3</ele>
        <time>2015-02-18T21:07:20Z</time>
      </trkpt>
      <trkpt lat="44.08441" lon="6.95559">
        <ele>1530.2</ele>
        <time>2015-02-18T21:07:20Z</time>
      </trkpt>
      <trkpt lat="44.08386" lon="6.95597">
        <ele>1521.7</ele>
        <time>2015-02-18T21:07:20Z</time>
      </trkpt>
      <trkpt lat="44.0833" lon="6.95589">
        <ele>1515.7</ele>
        <time>2015-02-18T21:07:20Z</time>
      </trkpt>
      <trkpt lat="44.08272" lon="6.95593">
        <ele>1509.8</ele>
        <time>2015-02-18T21:07:20Z</time>
      </trkpt>
      <trkpt lat="44.08056" lon="6.95619">
        <ele>1498.4</ele>
        <time>2015-02-18T21:07:20Z</time>
      </trkpt>
    </trkseg>
  </trk>
</gpx>